Theta_e
333 334 335 335 334 334 334 334 334 333 333 333 334 334 335 343 345 345 346 347 345 343 341 342 344 344 345 343 344 344 342 341 340 339 339 339 338 336 334 331 329 327 326 327
333 335 335 334 333 334 334 334 333 332 333 335 333 334 334 340 341 340 342 346 342 340 343 344 344 344 343 342 342 342 339 339 339 338 338 338 336 335 332 329 330 329 327 326
335 334 332 332 334 335 335 334 333 333 332 332 334 337 337 341 341 339 339 340 340 340 347 345 343 343 342 342 341 340 339 340 339 339 338 336 336 335 334 331 329 328 326 325
331 330 330 330 331 332 334 332 330 331 332 333 334 335 334 338 343 342 341 342 341 341 346 343 343 343 341 340 339 340 339 339 339 339 338 338 336 333 329 328 328 327 324 320
330 330 330 330 330 329 330 330 330 331 332 332 333 337 335 340 340 340 341 342 340 342 345 343 342 341 340 340 340 339 339 339 338 337 336 335 331 328 328 327 326 325 320 317
329 329 329 329 330 331 331 331 330 331 333 335 334 337 335 334 338 337 340 344 341 343 345 343 342 341 340 340 340 339 338 336 335 334 332 331 330 326 323 324 321 318 317 314
330 329 331 329 331 331 332 333 335 334 335 335 337 337 337 336 337 337 340 343 343 345 344 343 343 341 340 340 340 337 336 336 333 330 328 327 328 328 326 322 318 316 313 313
330 334 333 333 333 334 334 335 336 339 337 335 332 337 339 339 339 338 340 343 344 344 342 341 341 339 336 337 336 333 329 328 328 327 327 327 328 323 321 318 314 313 313 313
335 335 333 335 335 335 334 336 336 336 333 339 335 337 337 339 339 340 342 343 344 342 342 337 334 332 332 331 330 326 324 325 326 327 327 327 326 322 318 315 315 314 315 314
335 336 331 333 336 336 337 336 336 335 340 339 334 335 340 338 337 339 341 343 343 341 336 333 330 330 329 328 326 327 327 326 326 326 326 326 324 319 316 315 316 316 317 316
337 339 337 335 336 336 337 338 338 339 337 339 339 336 338 337 337 338 341 342 342 340 335 329 328 328 328 327 326 328 327 325 325 325 326 324 320 317 315 315 316 316 316 316
342 342 341 336 335 336 337 339 339 342 341 340 345 340 338 338 337 338 339 342 341 338 332 329 326 326 327 327 326 326 326 325 324 325 324 322 319 316 315 316 316 316 316 316
340 336 342 335 338 338 337 337 338 339 342 342 342 341 337 338 338 337 339 340 340 337 333 330 327 325 327 327 327 326 326 325 324 324 323 321 319 317 316 316 317 317 317 316
337 342 343 344 341 340 341 338 337 340 346 344 340 340 339 340 340 337 338 339 338 337 333 332 329 327 327 327 327 327 326 325 324 324 321 319 319 318 317 316 317 317 317 316
342 346 342 340 337 337 338 339 337 339 341 345 340 339 340 339 337 335 336 339 336 335 335 332 331 329 328 328 328 327 327 326 325 323 320 319 318 318 317 316 317 318 318 316
341 343 340 341 336 336 338 337 340 339 336 338 339 342 332 330 332 336 336 336 332 333 334 332 331 330 330 329 328 327 325 324 324 322 320 318 318 318 318 317 317 318 318 317
341 341 343 342 338 339 341 341 337 333 335 337 340 334 327 329 326 323 327 333 333 331 333 334 333 331 330 328 327 327 324 322 322 320 320 319 318 318 318 318 318 318 318 318
342 343 342 344 341 343 340 337 332 332 335 330 330 328 327 326 326 324 323 326 324 325 326 328 328 327 325 323 323 324 322 321 321 320 320 319 319 318 318 318 318 319 320 319
339 341 341 344 338 337 337 338 339 337 333 333 335 331 328 327 325 326 324 321 323 324 324 323 322 321 322 323 323 323 322 321 321 320 319 317 316 317 316 319 319 317 320 321
339 340 343 341 339 337 340 336 334 333 336 331 331 331 330 329 329 326 324 324 324 324 324 324 323 323 324 321 321 321 321 320 321 321 320 319 318 317 319 321 321 319 318 319
340 339 339 338 338 338 336 336 335 342 336 331 329 327 326 327 327 326 325 325 324 323 322 322 322 323 320 319 321 322 319 316 315 318 321 321 321 321 321 320 320 320 320 319
338 337 337 338 340 340 335 336 339 335 328 327 326 326 326 326 325 326 325 326 325 324 323 322 321 313 310 311 313 312 309 307 309 314 316 318 318 320 320 320 321 321 320 319
340 336 341 337 343 339 336 337 333 330 328 326 327 326 326 327 328 328 327 322 320 318 316 314 313 310 306 305 305 305 302 302 303 305 307 309 310 310 312 314 318 319 319 319
340 337 338 340 339 338 334 333 328 326 326 326 326 327 328 330 326 322 320 318 314 312 311 310 310 309 306 303 302 300 300 299 301 302 303 304 304 304 305 306 306 307 310 309
338 339 339 338 337 332 329 328 326 326 327 327 327 328 328 323 321 319 317 314 311 310 309 307 307 305 303 300 298 296 296 296 298 299 300 300 299 301 302 303 303 304 306 302
337 338 340 338 336 333 331 327 325 326 327 327 325 323 320 319 317 315 313 311 310 308 306 304 303 302 300 297 296 295 294 294 295 295 296 295 294 295 296 296 297 298 297 296
Wind_Speed
10 10 10 7 7 9 9 10 10 5 3 8 13 9 8 9 10 9 8 7 5 5 7 5 4 4 4 5 6 9 10 9 8 6 6 7 6 6 5 3 2 1 5 4
7 14 13 4 11 10 11 11 11 6 1 7 16 15 15 11 11 9 9 8 8 9 8 8 9 8 8 8 9 11 11 10 7 5 4 2 4 4 4 1 4 2 4 4
15 13 1 7 14 14 16 14 11 16 17 14 15 16 10 8 11 6 6 7 7 9 9 9 10 10 11 10 10 11 9 8 5 4 5 5 5 4 3 4 3 3 4 4
11 8 8 13 13 14 17 13 17 14 16 14 4 14 16 5 10 12 11 10 10 9 9 9 11 11 10 9 9 8 7 5 5 4 3 2 0 2 5 3 2 2 3 3
12 8 10 12 15 15 16 15 15 15 17 17 16 10 11 5 7 12 11 10 10 11 11 10 11 11 10 8 7 7 6 6 5 5 4 5 5 5 3 2 2 2 2 4
17 18 8 18 15 15 12 15 18 17 15 13 10 7 11 10 11 11 9 9 11 12 12 11 11 10 9 9 7 7 7 6 5 5 7 6 5 2 0 2 1 3 4 6
15 13 10 7 14 8 7 12 12 12 11 9 5 7 12 13 8 7 9 11 12 12 11 10 9 8 8 8 7 6 5 5 6 8 6 5 3 3 2 1 4 5 5 7
14 13 2 4 7 10 11 9 10 17 13 16 17 10 5 4 3 3 5 12 12 12 11 10 10 8 9 8 8 7 7 8 8 6 4 3 3 1 3 4 6 5 6 7
12 11 2 3 7 6 7 9 7 11 18 10 13 7 8 4 2 3 8 10 11 11 12 10 9 8 9 9 8 7 8 7 6 4 2 2 2 1 3 4 5 7 8 10
6 14 13 5 5 9 12 5 11 8 10 14 12 9 8 3 6 5 9 10 11 13 12 6 10 10 9 8 9 7 6 4 3 3 3 3 2 2 5 3 5 9 11 10
7 7 14 5 13 13 7 11 6 5 7 14 14 6 2 5 9 8 8 11 13 15 11 10 10 11 12 10 10 9 7 5 4 5 4 4 3 6 6 7 8 10 11 11
5 6 13 18 10 6 9 14 15 10 14 8 12 11 6 6 6 5 3 10 13 16 14 10 11 11 10 10 8 7 6 7 7 6 6 5 5 7 7 9 11 12 11 11
3 5 10 9 6 4 7 8 9 11 10 16 14 9 6 2 4 3 3 11 12 13 11 9 9 10 9 7 6 6 7 9 8 7 7 6 7 8 10 10 12 12 12 12
1 7 10 12 15 13 14 14 11 10 9 13 12 11 14 14 10 3 5 10 11 5 9 8 8 9 8 7 7 8 8 9 9 8 9 9 9 10 11 12 14 13 12 13
3 7 9 12 14 13 13 12 10 14 14 12 17 13 13 12 6 7 8 9 7 2 10 9 9 7 6 7 8 9 9 9 9 9 10 11 11 11 12 13 15 14 14 13
1 6 9 13 3 6 9 5 9 5 10 11 9 6 12 12 9 6 6 8 12 14 9 8 8 7 7 8 8 7 6 6 7 10 11 12 12 13 14 14 15 15 15 15
2 6 7 6 5 10 1 11 8 7 10 9 9 11 12 14 15 12 12 9 5 8 6 4 5 6 5 4 3 4 5 6 9 11 11 12 13 14 15 15 16 17 17 16
4 5 3 6 7 1 4 7 8 12 8 12 10 10 12 11 8 6 8 4 7 5 1 0 1 3 2 2 2 3 7 8 10 11 13 13 14 15 16 17 17 17 17 18
2 4 3 4 2 3 6 1 4 2 3 4 8 8 10 10 1 3 6 3 4 7 7 7 6 5 5 6 6 6 8 10 11 13 16 17 17 21 23 20 21 21 17 19
3 5 6 1 4 2 5 3 2 4 6 10 7 7 7 8 3 9 5 6 8 9 10 9 8 8 8 8 9 9 9 10 12 15 17 17 17 20 19 20 20 21 18 19
5 5 7 2 4 3 3 4 4 5 6 5 5 2 3 7 7 6 8 10 10 10 10 8 9 12 13 13 10 10 12 13 15 17 16 15 14 17 18 19 18 18 18 18
4 3 3 2 4 5 4 5 4 6 5 2 3 4 7 7 7 9 10 11 12 13 12 11 12 12 14 15 12 11 13 15 15 15 15 15 15 14 16 17 18 16 17 18
4 2 4 3 3 2 2 1 2 4 4 4 5 4 6 7 9 9 10 11 13 14 13 12 10 11 12 14 14 13 15 16 16 16 15 15 16 15 16 17 21 18 15 14
5 4 4 2 6 5 4 5 4 5 5 4 6 6 7 9 10 10 10 10 12 12 12 10 10 11 12 13 14 14 16 17 17 17 16 17 17 17 16 14 17 17 19 19
3 7 6 7 4 5 6 7 8 8 9 8 10 9 10 11 10 9 9 10 10 9 10 10 10 10 11 12 14 16 17 18 18 18 17 18 18 18 18 16 16 14 11 15
5 8 6 7 4 9 11 8 9 9 10 7 9 12 12 10 9 9 9 9 9 9 9 9 10 10 10 12 14 16 17 18 18 18 16 18 18 18 17 18 19 15 14 15
Wind_Direction
205 246 257 312 304 320 305 297 292 294 314 272 300 299 282 225 222 227 214 206 202 169 116 117 109 115 121 113 118 127 127 127 127 138 166 172 180 160 150 160 302 342 44 23
228 235 252 286 288 266 280 282 281 296 257 290 301 304 289 233 246 242 212 191 182 156 143 126 112 114 111 110 118 124 118 120 122 124 127 130 157 157 175 110 109 63 41 15
260 295 66 271 270 254 261 270 286 297 312 276 260 274 235 234 241 231 222 175 171 163 141 129 114 112 116 109 119 125 115 110 107 119 131 141 152 157 159 138 114 55 40 24
258 267 277 268 262 269 271 276 291 301 287 293 327 291 298 221 227 221 213 202 189 155 142 130 122 114 112 113 124 128 122 111 103 119 128 174 57 140 96 99 82 66 54 22
260 222 252 265 276 279 298 296 301 298 291 292 285 243 282 202 249 241 214 205 193 169 146 125 117 116 120 130 134 138 136 124 117 111 118 133 116 118 105 104 104 82 24 21
270 287 277 276 286 289 291 277 270 263 260 259 295 321 292 311 356 320 173 188 166 158 131 128 122 120 127 135 143 141 133 125 128 120 116 111 103 67 73 93 335 360 341 335
254 258 240 284 273 240 246 257 271 265 248 283 168 287 297 332 343 304 173 172 160 146 145 142 141 131 140 143 147 142 148 132 138 135 129 125 120 128 133 312 356 334 342 342
278 292 174 120 290 315 300 307 289 299 302 312 318 280 9 19 11 329 143 149 149 153 141 139 131 153 143 144 154 148 141 140 139 148 142 142 144 19 343 351 341 344 341 338
304 275 92 269 298 281 290 252 350 300 271 250 276 297 243 167 198 208 167 166 154 147 136 131 144 148 141 148 154 151 141 144 157 147 163 175 169 79 349 340 331 334 329 329
313 289 295 302 278 230 253 329 277 260 287 289 297 280 294 166 12 190 206 193 164 150 128 149 152 148 144 153 145 155 166 169 185 214 237 227 215 310 321 293 313 324 322 319
308 269 294 243 258 285 246 246 230 302 294 291 290 304 72 10 352 337 197 201 171 152 154 165 146 154 167 169 167 181 192 205 228 243 246 238 268 310 298 290 305 312 312 313
30 302 287 287 310 298 284 292 303 288 278 261 287 286 83 62 31 32 151 174 173 158 174 147 148 158 173 178 183 194 227 248 250 251 237 242 276 301 287 288 299 303 303 311
16 259 290 284 205 216 268 295 277 283 290 270 278 265 77 87 19 46 194 172 170 176 164 159 165 174 183 206 209 229 241 259 269 259 246 255 276 291 284 287 297 296 294 304
246 259 265 285 311 312 293 291 308 293 268 273 277 320 314 47 18 10 253 184 170 152 176 192 196 199 197 217 239 248 258 266 269 261 260 271 279 289 285 282 292 289 287 295
268 271 291 294 299 299 286 276 282 262 271 273 283 278 3 351 335 322 285 93 49 268 217 205 216 225 218 224 245 257 268 271 265 258 264 276 281 282 287 285 286 290 283 284
181 285 306 294 303 289 292 332 348 353 356 313 318 66 7 17 66 24 97 139 179 220 237 234 223 232 234 250 263 271 273 261 248 255 269 278 281 286 289 290 288 287 286 283
268 319 300 284 311 302 217 16 58 62 25 355 23 17 16 43 54 39 4 8 308 246 251 266 255 238 255 287 295 269 253 258 262 271 283 291 294 293 293 293 293 291 288 283
285 284 283 300 291 276 86 77 117 86 88 95 76 49 45 47 30 2 313 197 318 9 337 194 120 111 104 42 352 272 273 276 284 293 289 286 287 286 286 277 274 278 282 279
281 274 276 292 330 118 157 165 197 206 102 158 154 166 160 170 61 300 316 356 56 60 70 70 79 96 62 32 354 321 306 299 297 296 292 290 288 287 282 277 274 268 271 277
214 248 267 229 272 299 73 98 137 189 105 179 164 195 193 189 260 83 120 69 65 51 45 38 41 56 40 6 348 336 323 315 324 325 312 303 299 291 291 286 289 282 267 270
213 237 266 221 258 148 116 140 191 240 79 161 228 123 92 77 68 83 61 53 47 44 37 42 66 59 36 15 10 24 12 356 336 328 325 323 321 311 299 298 297 288 283 276
269 261 222 259 254 209 142 180 264 78 137 144 122 99 114 103 79 70 66 58 50 51 46 62 68 51 37 31 31 31 19 356 349 342 338 338 338 337 331 321 311 304 296 286
245 277 335 269 25 107 228 259 116 165 169 152 155 140 116 110 87 77 74 62 56 53 58 57 61 59 44 37 32 24 9 359 354 350 346 344 343 345 343 342 340 331 325 306
211 202 245 253 172 230 211 173 187 200 137 130 121 116 115 106 92 84 75 67 65 58 57 53 51 48 39 28 24 16 3 355 348 344 341 339 341 341 342 342 344 346 1 1
13 167 245 249 211 183 182 153 142 124 114 110 100 95 95 102 98 95 93 85 75 64 56 46 40 35 28 17 10 5 359 353 347 341 339 340 337 336 331 333 335 333 342 3
185 262 238 274 153 225 156 151 146 156 135 127 109 98 86 92 94 92 84 81 80 67 48 39 30 19 14 8 3 359 356 353 350 343 346 343 336 337 337 333 328 328 339 338